Location: Monrovia
(34.7865°N, 86.7139°W)
Time: 00:38:45
(UTC+00:00)

ATLAS 2AS CENTAUR R/B - Pass Details

Date: 14 July 2020
Orbit: 930 x 1282 km, 63.7° (Epoch: 19 July)

Event Time Altitude Azimuth Distance (km) Brightness Sun altitude
Rises 03:29:56 0° 328° (NNW) 4,108 7.2 -24.2°
Reaches altitude 10° 03:32:47 10° 328° (NNW) 3,095 6.2 -24.5°
Maximum altitude 03:40:10 85° 242° (WSW) 1,107 2.7 -25.4°
Enters shadow 03:41:53 55° 158° (SSE) 1,279 2.7 -25.6°
